Regional Weather Roundup
Issued by NWS State College, PA

Home | Current Version | Previous Version | Graphics & Text | Print | Product List | Glossary Off
Versions: 1 2 3 4 5 6 7 8 9 10 11 12 13 14 15 16 17 18 19 20 21 22 23 24 25 26 27 28 29 30 31 32 33 34 35 36 37 38 39 40 41 42 43 44 45 46 47 48 49 50

000
ASUS41 KCTP 021310
RWRCTP

REGIONAL WEATHER ROUNDUP
NATIONAL WEATHER SERVICE STATE COLLEGE PA
900 AM EDT TUE SEP 02 2014

Note: "fair" indicates few or no clouds below 12,000 feet with no
significant weather and/or obstructions to visibility.

* = STATION THAT DOES NOT REPORT PRECIPITATION /E.G. RAIN...SNOW...ETC/
    THUNDER OR FOG.

PAZ002>004-007>009-013>016-020>023-029>032-021400-
WESTERN PENNSYLVANIA

CITY           SKY/WX    TMP DP  RH WIND       PRES   REMARKS
ERIE           PTSUNNY   75  69  81 S13       29.91S
MEADVILLE      CLOUDY    71  67  87 SW10G17   29.97S FOG
FRANKLIN*      CLOUDY    72  66  83 SW10      30.00R
NEW CASTLE     FAIR      75  71  87 VRB5      29.99S
BEAVER COUNTY  CLOUDY    73  70  88 SW7       30.01R
BUTLER*        PTSUNNY   73  68  83 W9        30.03R
PITTSBURGH INT CLOUDY    73  70  90 SW6       30.00R
PITTSBURGH     PTSUNNY   74  69  85 S6        30.00S
INDIANA*       PTSUNNY   72  70  94 W14       30.05R
LATROBE        PTSUNNY   73  72  94 SW8       30.02S
WASHINGTON CO* CLOUDY    73  70  88 SW6       30.02S
$$

PAZ004>006-010>012-017>019-024>028-033>037-041-042-045-046-049>053-021400-
CENTRAL PENNSYLVANIA

CITY           SKY/WX    TMP DP  RH WIND       PRES   REMARKS
BRADFORD       CLOUDY    71  67  87 W5        29.98S
DUBOIS         CLOUDY    72  68  87 W9        29.99S
CLEARFIELD     CLOUDY    72  70  93 SW6       29.99S
JOHNSTOWN      CLOUDY    70  65  84 W16G26    30.05R
ALTOONA        MOSUNNY   76  69  79 W10       30.01S
STATE COLLEGE  CLOUDY    75  70  83 W5        29.98S
WILLIAMSPORT   CLOUDY    70  69  97 CALM      29.94S FOG
SELINSGROVE    CLOUDY    75  71  87 CALM      29.96S
FT INDIANTOWN  SUNNY     73  73 100 VRB2      29.97S
CAPITAL CITY   MOSUNNY   77  68  73 CALM      29.95S
HARRISBURG     PTSUNNY   79  70  74 CALM      29.95S
YORK           SUNNY     80  70  71 CALM      29.97S
$$

PAZ038>040-043-044-047-048-054-055-060>062-067>071-021400-
EASTERN PENNSYLVANIA

CITY           SKY/WX    TMP DP  RH WIND       PRES   REMARKS
SCRANTON       MOSUNNY   78  69  73 SW8       29.96F
MOUNT POCONO   MOSUNNY   73  68  84 W10       30.01S
ALLENTOWN      MOSUNNY   78  71  79 W5        29.95F
QUAKERTOWN*    SUNNY     77  73  88 MISG      29.98R
READING        SUNNY     78  71  79 CALM      29.95S
LANCASTER      SUNNY     77  72  84 CALM      29.97S
COATESVILLE    SUNNY     77  73  88 W5        29.99S
POTTSTOWN      SUNNY     77  71  82 W3        29.98S
BLUE BELL      SUNNY     81  72  74 W3        29.96S
DOYLESTOWN     SUNNY     78  71  79 W7        29.96R
WILLOW GROVE   NOT AVBL
NORTH PHILA    SUNNY     83  69  62 W9        29.97R
PHILADELPHIA   MOSUNNY   80  72  76 W9        29.96S
$$



USA.gov is the U.S. government's official web portal to all federal, state and local government web resources and services.